sat.trackr.live / text

‹ back to catalog

STARLINK-34624

NORAD 64805 · 2025-150R

PAYLOAD ACTIVE UNKNOWN

§ Identity

Operator
Country
US
Launch date
2025-07-16
Launch site
AFWTR
Launch vehicle
Mass (kg)
RCS (m²)

Purposes: comms

External: N2YO · Heavens-Above · Gunter

§ Orbital elements

Epoch: 2026-09-20T11:49:27.126048Z

Period
96.11 min
Inclination
70.0029°
Eccentricity
0.0003193
Mean motion
14.98332958 rev/d
Perigee alt
569.8 km
Apogee alt
574.3 km
Semi-major
6,950.2 km
B*
3.6839e-4
RAAN
3.3974°
Arg perigee
269.5744°
Mean anomaly
90.5049°
Rev number
6,569

§ Raw data

STARLINK-346241 64805U 25150R   26263.49267507  .00004306  00000+0  36839-3 0  99992 64805  70.0029   3.3974 0003193 269.5744  90.5049 14.98332958 65697

JSON: /api/v1/satellites/64805 · /tle

For live sub-satellite position, see the globe view (requires WebGL).

§ Visibility from observer

Set your observer location to see the next 7 days of passes ≥ 10°. The values pass through the URL so the page stays shareable.

No JS? Fill the form by hand. The geolocation button needs JavaScript.